Point Pleasant, WV

1:07 AM EST on December 14, 2017 (GMT -0500)
Point Pleasant

Weather History for K3I2 - January, 2009

Change the Weather History Date:

Tuesday, January 13, 2009

  Actual Average (KHTS) Record (KHTS)
Temperature  
Mean Temperature 32 °F -  
Max Temperature 37 °F 39 °F 75 °F (2005)
Min Temperature 24 °F 23 °F -12 °F (1912)
Degree Days  
Heating Degree Days 34    
Moisture  
Dew Point 25 °F    
Average Humidity 75    
Maximum Humidity 93    
Minimum Humidity 60    
Precipitation  
Precipitation 0.00 in - - ()
Sea Level Pressure  
Sea Level Pressure 30.02 in    
Wind  
Wind Speed 4 mph (WSW)    
Max Wind Speed 15 mph    
Max Gust Speed 23 mph    
Visibility 9 miles    
Events Rain , Snow    
Averages and records for this station are not official NWS values.
T = Trace of Precipitation, MM = Missing Value Source: NWS Daily Summary

Daily Weather History Graph

Daily Weather History Graph

Search for Another Location

Airport or City:

Trip Planner

Search our weather history database for the weather conditions in past years. The results will help you decide how hot, cold, wet, or windy it might be!

Date:

Astronomy

Jan. 13, 2009 Rise Set
Actual Time 7:46 AM EST 5:28 PM EST
Civil Twilight 7:16 AM EST 5:57 PM EST
Nautical Twilight 6:43 AM EST 6:30 PM EST
Astronomical Twilight 6:11 AM EST 7:02 PM EST
Moon 8:50 PM EST (1/13) 9:27 AM EST (1/13)
Length of Visible Light 10h 41m
Length of Day
9h 42m
Waning Gibbous, 91% of the Moon is Illuminated
Jan 13
Waning Gibbous
Jan 17
Last Quarter
Jan 26
New
Feb 2
First Quarter
Feb 9
Full

Hourly Weather History & Observations

Time (EST) Temp. Windchill Dew Point Humidity Pressure Visibility Wind Dir Wind Speed Gust Speed Precip Events Conditions
12:00 AM 26.6 °F - 23.0 °F 86% 30.10 in 7.0 mi Calm Calm - N/A   Clear
12:20 AM 26.6 °F - 23.0 °F 86% 30.10 in 7.0 mi Calm Calm - N/A   Clear
12:40 AM 26.6 °F 22.6 °F 23.0 °F 86% 30.09 in 7.0 mi South 3.5 mph - N/A   Clear
1:00 AM 28.4 °F - 26.6 °F 93% 30.08 in 10.0 mi Calm Calm - N/A   Scattered Clouds
1:20 AM 30.2 °F - 26.6 °F 86% 30.08 in 10.0 mi Calm Calm - N/A   Scattered Clouds
2:00 AM 28.4 °F - 24.8 °F 86% 30.07 in 10.0 mi Calm Calm - N/A   Overcast
2:20 AM 30.2 °F - 26.6 °F 86% 30.06 in 10.0 mi Calm Calm - N/A   Overcast
2:40 AM 32.0 °F - 26.6 °F 80% 30.06 in 10.0 mi Calm Calm - N/A   Overcast
3:00 AM 32.0 °F - 26.6 °F 80% 30.06 in 10.0 mi Calm Calm - N/A   Overcast
3:20 AM 32.0 °F 27.5 °F 26.6 °F 80% 30.05 in 10.0 mi SSW 4.6 mph - N/A   Overcast
3:40 AM 32.0 °F - 26.6 °F 80% 30.04 in 10.0 mi Calm Calm - N/A   Overcast
4:00 AM 32.0 °F - 24.8 °F 75% 30.03 in 10.0 mi Calm Calm - N/A   Mostly Cloudy
4:20 AM 32.0 °F 28.7 °F 24.8 °F 75% 30.02 in 10.0 mi South 3.5 mph - N/A   Scattered Clouds
4:40 AM 32.0 °F - 24.8 °F 75% 30.01 in 10.0 mi Calm Calm - N/A   Mostly Cloudy
5:00 AM 32.0 °F - 24.8 °F 75% 30.01 in 10.0 mi Calm Calm - N/A   Overcast
5:20 AM 33.8 °F 29.6 °F 24.8 °F 70% 30.00 in 10.0 mi SW 4.6 mph - N/A   Overcast
6:00 AM 33.8 °F - 23.0 °F 65% 29.98 in 10.0 mi Calm Calm - N/A   Overcast
6:20 AM 33.8 °F - 23.0 °F 65% 29.98 in 10.0 mi Calm Calm - N/A   Overcast
6:40 AM 33.8 °F - 23.0 °F 65% 29.97 in 10.0 mi Calm Calm - N/A   Overcast
7:20 AM 33.8 °F 29.6 °F 23.0 °F 65% 29.96 in 10.0 mi South 4.6 mph - N/A   Scattered Clouds
7:40 AM 33.8 °F 30.8 °F 23.0 °F 65% 29.96 in 10.0 mi SSW 3.5 mph - N/A   Mostly Cloudy
8:00 AM 33.8 °F 28.6 °F 23.0 °F 65% 29.97 in 10.0 mi SSW 5.8 mph - N/A   Mostly Cloudy
8:20 AM 35.6 °F 29.9 °F 23.0 °F 60% 29.96 in 10.0 mi SSW 6.9 mph - N/A   Scattered Clouds
9:00 AM 35.6 °F 29.2 °F 23.0 °F 60% 29.96 in 10.0 mi SW 8.1 mph - N/A   Overcast
9:40 AM 37.4 °F 30.3 °F 24.8 °F 60% 29.96 in 10.0 mi SW 10.4 mph 17.3 mph N/A   Overcast
10:00 AM 37.4 °F 30.3 °F 26.6 °F 65% 29.96 in 7.0 mi SW 10.4 mph 18.4 mph N/A   Overcast
10:20 AM 35.6 °F 26.6 °F 28.4 °F 75% 29.96 in 5.0 mi WSW 13.8 mph 21.9 mph N/A Snow Light Snow
10:40 AM 35.6 °F 28.6 °F 30.2 °F 81% 29.96 in 10.0 mi WSW 9.2 mph 18.4 mph N/A Snow Light Snow
11:00 AM 35.6 °F 27.1 °F 32.0 °F 87% 29.96 in 7.0 mi SW 12.7 mph 18.4 mph N/A Rain Light Rain
11:20 AM 35.6 °F 27.5 °F 32.0 °F 87% 29.95 in 10.0 mi SW 11.5 mph - N/A   Overcast
11:40 AM 37.4 °F 29.3 °F 32.0 °F 81% 29.94 in 10.0 mi WSW 12.7 mph - N/A   Overcast
12:00 PM 37.4 °F 29.8 °F 32.0 °F 81% 29.94 in 10.0 mi WSW 11.5 mph - N/A   Overcast
12:20 PM 37.4 °F 28.5 °F 32.0 °F 81% 29.93 in 10.0 mi WSW 15.0 mph 20.7 mph N/A   Overcast
12:40 PM 37.4 °F 29.3 °F 32.0 °F 81% 29.93 in 10.0 mi WSW 12.7 mph 20.7 mph N/A   Overcast
1:00 PM 37.4 °F 29.8 °F 32.0 °F 81% 29.92 in 10.0 mi WSW 11.5 mph 19.6 mph N/A   Overcast
1:20 PM 37.4 °F 30.8 °F 32.0 °F 81% 29.91 in 10.0 mi West 9.2 mph - N/A   Overcast
1:40 PM 37.4 °F 30.3 °F 32.0 °F 81% 29.91 in 10.0 mi WSW 10.4 mph 17.3 mph N/A   Overcast
2:00 PM 37.4 °F 30.8 °F 32.0 °F 81% 29.92 in 10.0 mi WSW 9.2 mph - N/A   Overcast
2:20 PM 35.6 °F 26.6 °F 32.0 °F 87% 29.92 in 5.0 mi WSW 13.8 mph 20.7 mph N/A Rain Light Rain
2:40 PM 35.6 °F 28.6 °F 32.0 °F 87% 29.92 in 10.0 mi WSW 9.2 mph 18.4 mph N/A Rain Light Rain
3:00 PM 32.0 °F 24.8 °F 30.2 °F 93% 29.95 in 1.0 mi WNW 8.1 mph 23.0 mph N/A Snow Light Snow
3:20 PM 32.0 °F 24.2 °F 28.4 °F 87% 29.96 in 2.5 mi WNW 9.2 mph 18.4 mph N/A Snow Light Snow
3:40 PM 32.0 °F 22.5 °F 28.4 °F 87% 29.97 in 5.0 mi West 12.7 mph 19.6 mph N/A Snow Light Snow
4:00 PM 32.0 °F 24.8 °F 26.6 °F 80% 29.99 in 5.0 mi NW 8.1 mph - N/A Snow Light Snow
4:20 PM 32.0 °F 26.4 °F 24.8 °F 75% 30.00 in 4.0 mi WNW 5.8 mph - N/A   Haze
4:40 PM 30.2 °F 20.8 °F 23.0 °F 75% 30.01 in 5.0 mi West 11.5 mph 20.7 mph N/A Snow Light Snow
5:00 PM 30.2 °F 24.3 °F 21.2 °F 69% 30.02 in 10.0 mi WNW 5.8 mph 17.3 mph N/A   Overcast
5:20 PM 30.2 °F 23.4 °F 19.4 °F 64% 30.04 in 10.0 mi WNW 6.9 mph 16.1 mph N/A   Overcast
5:40 PM 28.4 °F 19.7 °F 19.4 °F 69% 30.06 in 10.0 mi WNW 9.2 mph 16.1 mph N/A   Overcast
6:00 PM 28.4 °F 22.2 °F 17.6 °F 64% 30.08 in 10.0 mi WNW 5.8 mph 19.6 mph N/A   Overcast
6:20 PM 28.4 °F 19.7 °F 17.6 °F 64% 30.09 in 10.0 mi WNW 9.2 mph - N/A   Overcast
7:00 PM 28.4 °F 22.2 °F 17.6 °F 64% 30.12 in 10.0 mi WNW 5.8 mph - N/A Snow Light Snow
7:20 PM 28.4 °F 21.2 °F 17.6 °F 64% 30.13 in 10.0 mi West 6.9 mph - N/A   Overcast
7:40 PM 26.6 °F 20.0 °F 17.6 °F 69% 30.14 in 7.0 mi WNW 5.8 mph - N/A Snow Light Snow
8:00 PM 26.6 °F 20.0 °F 17.6 °F 69% 30.14 in 10.0 mi WNW 5.8 mph - N/A   Overcast
8:20 PM 26.6 °F 20.0 °F 15.8 °F 64% 30.15 in 10.0 mi West 5.8 mph - N/A   Overcast
8:40 PM 26.6 °F 18.2 °F 15.8 °F 64% 30.15 in 10.0 mi WNW 8.1 mph - N/A   Overcast
9:00 PM 26.6 °F 21.2 °F 15.8 °F 64% 30.16 in 10.0 mi WNW 4.6 mph - N/A   Overcast
9:20 PM 26.6 °F 21.2 °F 17.6 °F 69% 30.16 in 2.5 mi West 4.6 mph - N/A Snow Light Snow
9:40 PM 26.6 °F 18.2 °F 17.6 °F 69% 30.17 in 10.0 mi West 8.1 mph - N/A   Overcast
10:00 PM 24.8 °F 15.3 °F 14.0 °F 64% 30.17 in 10.0 mi WNW 9.2 mph 17.3 mph N/A   Overcast
10:20 PM 24.8 °F 16.1 °F 14.0 °F 64% 30.18 in 10.0 mi WNW 8.1 mph 17.3 mph N/A   Overcast
10:40 PM 23.0 °F 15.8 °F 12.2 °F 63% 30.18 in 10.0 mi West 5.8 mph - N/A   Overcast
11:00 PM 23.0 °F 17.0 °F 12.2 °F 63% 30.18 in 10.0 mi WNW 4.6 mph - N/A   Mostly Cloudy
11:20 PM 23.0 °F 14.7 °F 12.2 °F 63% 30.18 in 10.0 mi WNW 6.9 mph - N/A   Overcast